If you wish to contribute or participate in the discussions about articles you are invited to join SKYbrary as a registered user

 Actions

Al Udeid Air Base

From SKYbrary Wiki

OTBH
Airport
ICAO: OTBH – IATA: IUD
Summary
Name Al Udeid Air Base
Region Middle East
Territory Qatar QA.gif
Location Al-Udeid, Ad Dawhah
Serving Al-Udeid Air Base
Elevation 39.624 m
130 ft39.624 m
Coordinates 25° 7' 0.82" N, 51° 18' 54.74" E
Runways
Designator Length Width Surface ROPS
16/34 3750 m12,303.15 ft
45 m147.638 ft
ASP yes/yes


METAR
Observation OTBH 060056Z 33011KT 9999 CLR 31/20 A2955 RMK AO2A SLP007 T03070203 $
Station Al Udeid
Date/Time 06 June 2020 00:56:00
Wind direction 330°
Wind speed 11 kts
Lowest cloud amount n/a
Temperature 30.7°C
Dew point 20.3°C
Humidity 53%
QNH hPa
Weather condition n/a

Al Udeid Air Base is a military base southwest of Doha, Qatar, also known as Abu Nakhlah Airport. It houses Qatari Air Force, U.S. Air Force, and Royal Air Force personnel and assets.

Climatology

Hot Desert Climate (Köppen climate classification BWh)

Maps

Terrain

Loading map...

Airport Layout

Loading map...


Accidents & Serious Incidents at or in vicinity of OTBH

None on SKYbrary